JQ917 WADD-YMML

Flight info

Callsign JQ917
Flight time N/A
Altitude 33000
Route ATMAP A576 CIN T29 SCHEE/N0455F350 T29 VIRUV T21 LEC H119 ARBEY
Aircraft A321/M-SDE3FGHIRWY/LB1

Departure

Time 2026-05-04 04:14
Airport Denpasar I Gusti Ngurah Rai International Airport (WADD)

Arrival

Time N/A
Airport Melbourne Airport (YMML)
Time Latitude Longitude Altitude Speed Heading
2026-05-04 03:50 -8.74535 115.16865 22 ft 0 kts 358°
2026-05-04 04:01 -8.74540 115.16865 22 ft 3 kts 358°
2026-05-04 04:01 -8.74565 115.16866 22 ft 3 kts 358°
2026-05-04 04:02 -8.74592 115.16868 21 ft 3 kts 349°
2026-05-04 04:02 -8.74609 115.16882 21 ft 3 kts 295°
2026-05-04 04:02 -8.74612 115.16895 21 ft 0 kts 269°
2026-05-04 04:06 -8.74614 115.16878 21 ft 7 kts 259°
2026-05-04 04:07 -8.74626 115.16823 22 ft 8 kts 258°
2026-05-04 04:07 -8.74639 115.16760 21 ft 9 kts 258°
2026-05-04 04:07 -8.74654 115.16692 21 ft 10 kts 257°
2026-05-04 04:07 -8.74671 115.16618 21 ft 11 kts 257°
2026-05-04 04:08 -8.74682 115.16537 21 ft 11 kts 269°
2026-05-04 04:08 -8.74687 115.16453 21 ft 12 kts 267°
2026-05-04 04:08 -8.74691 115.16364 21 ft 12 kts 267°
2026-05-04 04:08 -8.74696 115.16271 19 ft 14 kts 267°
2026-05-04 04:09 -8.74702 115.16167 18 ft 15 kts 266°
2026-05-04 04:09 -8.74707 115.16054 16 ft 16 kts 269°
2026-05-04 04:09 -8.74709 115.15936 15 ft 17 kts 269°
2026-05-04 04:09 -8.74712 115.15812 13 ft 18 kts 268°
2026-05-04 04:10 -8.74718 115.15682 12 ft 18 kts 267°
2026-05-04 04:10 -8.74725 115.15555 12 ft 18 kts 267°
2026-05-04 04:10 -8.74732 115.15435 12 ft 11 kts 257°
2026-05-04 04:10 -8.74775 115.15391 12 ft 5 kts 189°
2026-05-04 04:11 -8.74782 115.15390 11 ft 0 kts 183°
2026-05-04 04:11 -8.74783 115.15390 11 ft 0 kts 183°
2026-05-04 04:11 -8.74790 115.15390 11 ft 2 kts 182°
2026-05-04 04:12 -8.74839 115.15389 11 ft 8 kts 180°
2026-05-04 04:12 -8.74890 115.15412 12 ft 8 kts 106°
2026-05-04 04:12 -8.74892 115.15440 12 ft 0 kts 87°
2026-05-04 04:13 -8.74888 115.15528 13 ft 38 kts 88°
2026-05-04 04:13 -8.74870 115.16001 15 ft 95 kts 86°
2026-05-04 04:13 -8.74837 115.16846 18 ft 143 kts 87°
2026-05-04 04:14 -8.74791 115.17984 68 ft 177 kts 89°
2026-05-04 04:14 -8.74751 115.19241 393 ft 183 kts 88°
2026-05-04 04:14 -8.74725 115.20596 681 ft 199 kts 89°
2026-05-04 04:14 -8.74709 115.22024 973 ft 215 kts 89°
2026-05-04 04:15 -8.74649 115.23626 1198 ft 234 kts 86°
2026-05-04 04:15 -8.74548 115.25295 1579 ft 244 kts 87°
2026-05-04 04:15 -8.74457 115.27026 2013 ft 251 kts 88°
2026-05-04 04:15 -8.74372 115.28786 2592 ft 253 kts 88°
2026-05-04 04:16 -8.74293 115.30557 3152 ft 255 kts 88°
2026-05-04 04:16 -8.74217 115.32368 3751 ft 257 kts 88°
2026-05-04 04:16 -8.74143 115.34148 4320 ft 259 kts 88°
2026-05-04 04:16 -8.74069 115.35967 4861 ft 262 kts 88°
2026-05-04 04:17 -8.73992 115.37816 5378 ft 265 kts 88°
2026-05-04 04:17 -8.73915 115.39678 5942 ft 266 kts 88°
2026-05-04 04:17 -8.73837 115.41560 6500 ft 268 kts 88°
2026-05-04 04:17 -8.73761 115.43435 6986 ft 272 kts 88°
2026-05-04 04:18 -8.73681 115.45364 7488 ft 275 kts 88°
2026-05-04 04:18 -8.73681 115.47279 7973 ft 277 kts 99°
2026-05-04 04:18 -8.74405 115.49080 8403 ft 282 kts 126°
2026-05-04 04:18 -8.75884 115.50401 8853 ft 287 kts 150°
2026-05-04 04:19 -8.77807 115.50959 9277 ft 293 kts 175°
2026-05-04 04:19 -8.79860 115.50936 9722 ft 296 kts 180°
2026-05-04 04:19 -8.81913 115.50879 10133 ft 299 kts 180°
2026-05-04 04:19 -8.84027 115.50831 10361 ft 309 kts 179°
2026-05-04 04:20 -8.86232 115.50792 10561 ft 320 kts 179°
2026-05-04 04:20 -8.88502 115.50757 10756 ft 331 kts 179°
2026-05-04 04:20 -8.90874 115.50723 10917 ft 343 kts 179°
2026-05-04 04:20 -8.93290 115.50687 10931 ft 354 kts 179°
2026-05-04 04:21 -8.95773 115.50645 10931 ft 356 kts 179°
2026-05-04 04:21 -8.98281 115.50600 10930 ft 356 kts 179°
2026-05-04 04:21 -9.00765 115.50558 10929 ft 356 kts 179°
2026-05-04 04:21 -9.03256 115.50516 10930 ft 356 kts 179°
2026-05-04 04:22 -9.05742 115.50474 10930 ft 356 kts 179°
2026-05-04 04:22 -9.08238 115.50433 10995 ft 360 kts 179°
2026-05-04 04:22 -9.10737 115.50391 11416 ft 361 kts 179°
2026-05-04 04:22 -9.13270 115.50347 11906 ft 361 kts 179°
2026-05-04 04:23 -9.15807 115.50305 12313 ft 363 kts 179°
2026-05-04 04:23 -9.18349 115.50262 12700 ft 366 kts 179°
2026-05-04 04:23 -9.20875 115.50220 13086 ft 368 kts 179°
2026-05-04 04:23 -9.23455 115.50177 13469 ft 370 kts 179°
2026-05-04 04:24 -9.26041 115.50134 13842 ft 372 kts 180°
2026-05-04 04:24 -9.28639 115.50092 14210 ft 374 kts 180°
2026-05-04 04:24 -9.31277 115.50048 14575 ft 376 kts 180°
2026-05-04 04:24 -9.33916 115.50004 14936 ft 378 kts 180°
2026-05-04 04:25 -9.36541 115.49960 15283 ft 380 kts 180°
2026-05-04 04:25 -9.39213 115.49916 15632 ft 382 kts 180°
2026-05-04 04:25 -9.41891 115.49871 15896 ft 385 kts 180°
2026-05-04 04:25 -9.44590 115.49825 15924 ft 384 kts 180°
2026-05-04 04:26 -9.47251 115.49780 15929 ft 384 kts 180°
2026-05-04 04:26 -9.49946 115.49735 15931 ft 384 kts 180°
2026-05-04 04:26 -9.52581 115.50021 15906 ft 382 kts 162°
2026-05-04 04:26 -9.54926 115.51253 15936 ft 383 kts 141°
2026-05-04 04:27 -9.56704 115.53284 16183 ft 384 kts 122°
2026-05-04 04:27 -9.58121 115.55579 16587 ft 384 kts 121°
2026-05-04 04:27 -9.59539 115.57871 16895 ft 387 kts 122°
2026-05-04 04:27 -9.60978 115.60180 17185 ft 390 kts 122°
2026-05-04 04:28 -9.62431 115.62501 17478 ft 392 kts 122°
2026-05-04 04:28 -9.63895 115.64833 17776 ft 394 kts 122°
2026-05-04 04:28 -9.65371 115.67179 18063 ft 397 kts 122°
2026-05-04 04:28 -9.66856 115.69538 18348 ft 399 kts 122°
2026-05-04 04:29 -9.68349 115.71908 18634 ft 400 kts 122°
2026-05-04 04:29 -9.69850 115.74290 18907 ft 402 kts 122°
2026-05-04 04:29 -9.71359 115.76686 19175 ft 404 kts 122°
2026-05-04 04:29 -9.72877 115.79096 19434 ft 406 kts 122°
2026-05-04 04:30 -9.74401 115.81516 19684 ft 408 kts 122°
2026-05-04 04:30 -9.75930 115.83947 19943 ft 410 kts 122°
2026-05-04 04:30 -9.77461 115.86382 20197 ft 412 kts 122°
2026-05-04 04:30 -9.79004 115.88836 20432 ft 414 kts 122°
2026-05-04 04:31 -9.80556 115.91304 20655 ft 416 kts 122°
2026-05-04 04:31 -9.82112 115.93780 20883 ft 417 kts 122°
2026-05-04 04:31 -9.83672 115.96261 21122 ft 419 kts 122°
2026-05-04 04:31 -9.85245 115.98763 21335 ft 420 kts 122°
2026-05-04 04:32 -9.86824 116.01273 21539 ft 422 kts 122°
2026-05-04 04:32 -9.88405 116.03781 21757 ft 423 kts 122°
2026-05-04 04:32 -9.89991 116.06300 21966 ft 425 kts 122°
2026-05-04 04:32 -9.91582 116.08827 22159 ft 426 kts 122°
2026-05-04 04:33 -9.93178 116.11367 22362 ft 428 kts 122°
2026-05-04 04:33 -9.94759 116.13883 22564 ft 429 kts 123°
2026-05-04 04:33 -9.96363 116.16438 22769 ft 430 kts 123°
2026-05-04 04:33 -9.97970 116.18999 22983 ft 431 kts 123°
2026-05-04 04:34 -9.99583 116.21570 23189 ft 432 kts 123°
2026-05-04 04:34 -10.01207 116.24159 23374 ft 433 kts 123°
2026-05-04 04:34 -10.02812 116.26719 23563 ft 435 kts 123°
2026-05-04 04:34 -10.04445 116.29324 23762 ft 436 kts 123°
2026-05-04 04:35 -10.06059 116.31898 23952 ft 437 kts 123°
2026-05-04 04:35 -10.07694 116.34508 24141 ft 438 kts 123°
2026-05-04 04:35 -10.09329 116.37122 24322 ft 439 kts 123°
2026-05-04 04:35 -10.10978 116.39755 24504 ft 440 kts 123°
2026-05-04 04:36 -10.12610 116.42362 24679 ft 441 kts 123°
2026-05-04 04:36 -10.14259 116.44971 24854 ft 441 kts 124°
2026-05-04 04:36 -10.16068 116.47486 25028 ft 442 kts 129°
2026-05-04 04:36 -10.18076 116.49847 25199 ft 442 kts 134°
2026-05-04 04:37 -10.24741 116.56328 25716 ft 444 kts 138°
2026-05-04 04:37 -10.26992 116.58468 25886 ft 445 kts 138°
2026-05-04 04:38 -10.29264 116.60632 26056 ft 445 kts 138°
2026-05-04 04:38 -10.31525 116.62791 26223 ft 446 kts 138°
2026-05-04 04:38 -10.33792 116.64957 26384 ft 447 kts 138°
2026-05-04 04:38 -10.36056 116.67125 26542 ft 448 kts 138°
2026-05-04 04:39 -10.38323 116.69295 26703 ft 449 kts 138°
2026-05-04 04:39 -10.40592 116.71469 26863 ft 449 kts 138°
2026-05-04 04:39 -10.42860 116.73642 27018 ft 450 kts 138°
2026-05-04 04:39 -10.45162 116.75849 27179 ft 451 kts 138°
2026-05-04 04:40 -10.47438 116.78030 27333 ft 451 kts 138°
2026-05-04 04:40 -10.49718 116.80217 27474 ft 452 kts 138°
2026-05-04 04:40 -10.52003 116.82409 27622 ft 453 kts 138°
2026-05-04 04:40 -10.54310 116.84623 27769 ft 453 kts 138°
2026-05-04 04:41 -10.56583 116.86803 27915 ft 454 kts 138°
2026-05-04 04:41 -10.58890 116.89019 28066 ft 455 kts 138°
2026-05-04 04:41 -10.61202 116.91238 28208 ft 455 kts 138°
2026-05-04 04:41 -10.63484 116.93430 28340 ft 456 kts 139°
2026-05-04 04:42 -10.65799 116.95654 28476 ft 457 kts 139°
2026-05-04 04:42 -10.68121 116.97884 28609 ft 457 kts 139°
2026-05-04 04:42 -10.70434 117.00106 28744 ft 458 kts 139°
2026-05-04 04:42 -10.72729 117.02312 28911 ft 458 kts 139°
2026-05-04 04:43 -10.75052 117.04546 29091 ft 457 kts 139°
2026-05-04 04:43 -10.77356 117.06762 29261 ft 457 kts 139°
2026-05-04 04:43 -10.79675 117.08993 29422 ft 457 kts 139°
2026-05-04 04:43 -10.81964 117.11195 29582 ft 456 kts 139°
2026-05-04 04:44 -10.84275 117.13419 29737 ft 456 kts 139°
2026-05-04 04:44 -10.86590 117.15647 29892 ft 456 kts 139°
2026-05-04 04:44 -10.88902 117.17873 30041 ft 456 kts 139°
2026-05-04 04:44 -10.91206 117.20092 30188 ft 456 kts 139°
2026-05-04 04:45 -10.93500 117.22302 30334 ft 456 kts 139°
2026-05-04 04:45 -10.95724 117.24444 30478 ft 456 kts 139°
2026-05-04 04:45 -10.98105 117.26739 30631 ft 456 kts 139°
2026-05-04 04:47 -11.11949 117.40090 31421 ft 458 kts 139°
2026-05-04 04:47 -11.14259 117.42319 31536 ft 459 kts 139°
2026-05-04 04:47 -11.16572 117.44552 31652 ft 459 kts 139°
2026-05-04 04:47 -11.18915 117.46813 31770 ft 460 kts 139°
2026-05-04 04:48 -11.21225 117.49044 31888 ft 460 kts 139°
2026-05-04 04:49 -11.30545 117.58052 32359 ft 462 kts 139°
2026-05-04 04:49 -11.32864 117.60295 32467 ft 463 kts 139°
2026-05-04 04:49 -11.35215 117.62568 32581 ft 463 kts 139°
2026-05-04 04:49 -11.37564 117.64840 32704 ft 464 kts 139°
2026-05-04 04:50 -11.39891 117.67092 32812 ft 464 kts 139°
2026-05-04 04:50 -11.42218 117.69344 32916 ft 465 kts 139°
2026-05-04 04:50 -11.46922 117.73899 32934 ft 465 kts 139°
2026-05-04 04:51 -11.51617 117.78447 32937 ft 466 kts 139°
2026-05-04 04:51 -11.56321 117.83006 32934 ft 466 kts 139°
2026-05-04 04:52 -11.60994 117.87538 32932 ft 465 kts 139°
2026-05-04 04:52 -11.65689 117.92094 32934 ft 465 kts 139°
2026-05-04 04:53 -11.70387 117.96654 32934 ft 465 kts 140°
2026-05-04 04:53 -11.75088 118.01220 32937 ft 465 kts 140°
2026-05-04 04:54 -11.79748 118.05749 32937 ft 465 kts 140°
2026-05-04 04:54 -11.84432 118.10304 32934 ft 465 kts 140°
2026-05-04 04:55 -11.89114 118.14860 32935 ft 465 kts 140°
2026-05-04 04:55 -11.93805 118.19429 32936 ft 465 kts 140°
2026-05-04 04:56 -11.98508 118.24012 32940 ft 466 kts 140°
2026-05-04 04:56 -12.03185 118.28545 32939 ft 465 kts 140°
2026-05-04 04:57 -12.07909 118.33097 32937 ft 465 kts 140°
2026-05-04 04:57 -12.12591 118.37620 32941 ft 466 kts 140°
2026-05-04 04:58 -12.17317 118.42194 32944 ft 466 kts 140°
2026-05-04 04:58 -12.22023 118.46751 32944 ft 466 kts 140°
2026-05-04 04:59 -12.26709 118.51293 32945 ft 466 kts 140°
2026-05-04 04:59 -12.31416 118.55857 32947 ft 466 kts 140°
2026-05-04 05:00 -12.36114 118.60415 32946 ft 466 kts 140°
2026-05-04 05:01 -12.43150 118.67246 32948 ft 466 kts 140°
2026-05-04 05:01 -12.47867 118.71828 32950 ft 466 kts 140°
2026-05-04 05:02 -12.52568 118.76398 32949 ft 466 kts 140°
2026-05-04 05:02 -12.57293 118.80992 32952 ft 467 kts 140°
2026-05-04 05:03 -12.61993 118.85564 32954 ft 467 kts 140°
2026-05-04 05:04 -12.71409 118.94734 32952 ft 467 kts 140°
2026-05-04 05:04 -12.76091 118.99297 32955 ft 467 kts 140°
2026-05-04 05:06 -12.94946 119.17698 32953 ft 468 kts 140°
2026-05-04 05:07 -12.99655 119.22300 32953 ft 468 kts 140°
2026-05-04 05:07 -13.04391 119.26930 32954 ft 468 kts 140°
2026-05-04 05:09 -13.25622 119.47723 32956 ft 469 kts 140°
2026-05-04 05:10 -13.30349 119.52358 32957 ft 469 kts 140°
2026-05-04 05:10 -13.35049 119.56972 32957 ft 470 kts 140°
2026-05-04 05:11 -13.39774 119.61611 32957 ft 470 kts 140°
2026-05-04 05:11 -13.44507 119.66260 32955 ft 470 kts 140°
2026-05-04 05:12 -13.49249 119.70922 32956 ft 470 kts 140°
2026-05-04 05:12 -13.53954 119.75551 32956 ft 471 kts 140°
2026-05-04 05:13 -13.58681 119.80202 32956 ft 471 kts 140°
2026-05-04 05:13 -13.63421 119.84869 32956 ft 471 kts 140°
2026-05-04 05:14 -13.67441 119.88830 32956 ft 471 kts 140°
2026-05-04 05:14 -13.72166 119.93488 32956 ft 471 kts 140°
2026-05-04 05:15 -13.76921 119.98178 32955 ft 472 kts 140°
2026-05-04 05:15 -13.81639 120.02834 32954 ft 472 kts 140°
2026-05-04 05:16 -13.86398 120.07533 32954 ft 472 kts 140°